カタログに戻る

IRIDE-MS1-EAG2-13

運用中科学SSO
NORAD 68450·PAYLOAD·🇮🇹 Italy

打ち上げ Mar 30, 2026 から Vandenberg Space Force Base

Loading…

次のパス (今後24時間)

TLE

最新Source: Space-Track

元期: Sep 14, 2026, 15:11 UTC

1 68450U 26067AL  26257.63277461  .00006495  00000-0  30628-3 0  9998
2 68450  97.4643 215.0306 0004376  78.9624 281.2103 15.19811791 25525

AllMySatでIRIDE-MS1-EAG2-13をリアルタイム追跡

Download on the App Store